Pinedale, WY

4:51 AM MST on February 22, 2017 (GMT -0700)
Wenz

Weather History for KPNA - September, 2013

Change the Weather History Date:

Friday, September 13, 2013

  Actual Average (KBPI) Record (KBPI)
Temperature  
Mean Temperature 53 °F -  
Max Temperature 64 °F 65 °F 85 °F (1990)
Min Temperature 42 °F 32 °F 20 °F (1999)
Degree Days  
Heating Degree Days 12    
Growing Degree Days 3 (Base 50)    
Moisture  
Dew Point 47 °F    
Average Humidity 88    
Maximum Humidity 100    
Minimum Humidity 55    
Precipitation  
Precipitation 0.00 in - - ()
Sea Level Pressure  
Sea Level Pressure 30.16 in    
Wind  
Wind Speed 4 mph (West)    
Max Wind Speed 8 mph    
Max Gust Speed -    
Visibility 10 miles    
Events Rain , Thunderstorm    
Averages and records for this station are not official NWS values.
T = Trace of Precipitation, MM = Missing Value Source: NWS Daily Summary

Daily Weather History Graph

Daily Weather History Graph

Search for Another Location

Airport or City:

Trip Planner

Search our weather history database for the weather conditions in past years. The results will help you decide how hot, cold, wet, or windy it might be!

Date:

Astronomy

Sep. 13, 2013 Rise Set
Actual Time 6:57 AM MDT 7:32 PM MDT
Civil Twilight 6:28 AM MDT 8:00 PM MDT
Nautical Twilight 5:54 AM MDT 8:34 PM MDT
Astronomical Twilight 5:20 AM MDT 9:08 PM MDT
Moon 3:30 PM MDT (9/13) 12:23 AM MDT (9/13)
Length of Visible Light 13h 31m
Length of Day
12h 34m
Waxing Gibbous, 62% of the Moon is Illuminated
Sep 13
Waxing Gibbous
Sep 19
Full
Sep 26
Last Quarter
Oct 4
New
Oct 11
First Quarter

Hourly Weather History & Observations

Time (MDT) Temp. Windchill Dew Point Humidity Pressure Visibility Wind Dir Wind Speed Gust Speed Precip Events Conditions
12:15 AM 44.6 °F 43.1 °F 44.6 °F 100% 30.29 in 10.0 mi NNW 3.5 mph - N/A   Clear
12:35 AM 46.4 °F 42.9 °F 46.4 °F 100% 30.27 in 10.0 mi NNW 6.9 mph - N/A   Clear
12:55 AM 46.4 °F 43.5 °F 46.4 °F 100% 30.27 in 10.0 mi NNW 5.8 mph - N/A   Clear
1:15 AM 46.4 °F 45.2 °F 46.4 °F 100% 30.27 in 10.0 mi WNW 3.5 mph - N/A   Clear
1:35 AM 44.6 °F 42.2 °F 44.6 °F 100% 30.26 in 10.0 mi West 4.6 mph - N/A   Clear
1:55 AM 44.6 °F 41.4 °F 44.6 °F 100% 30.26 in 10.0 mi WNW 5.8 mph - N/A   Clear
2:15 AM 44.6 °F 41.4 °F 44.6 °F 100% 30.26 in 10.0 mi NW 5.8 mph - N/A   Clear
2:35 AM 44.6 °F 40.2 °F 44.6 °F 100% 30.25 in 10.0 mi NW 8.1 mph - N/A   Clear
2:55 AM 44.6 °F 43.1 °F 44.6 °F 100% 30.25 in 10.0 mi WNW 3.5 mph - N/A   Clear
3:15 AM 42.8 °F 38.6 °F 42.8 °F 100% 30.24 in 10.0 mi West 6.9 mph - N/A   Clear
3:35 AM 42.8 °F 39.3 °F 42.8 °F 100% 30.24 in 10.0 mi West 5.8 mph - N/A   Clear
3:55 AM 42.8 °F 38.6 °F 42.8 °F 100% 30.24 in 10.0 mi NW 6.9 mph - N/A   Clear
4:15 AM 42.8 °F 40.1 °F 42.8 °F 100% 30.24 in 10.0 mi NW 4.6 mph - N/A   Clear
4:35 AM 42.8 °F 40.1 °F 42.8 °F 100% 30.24 in 10.0 mi West 4.6 mph - N/A   Clear
4:55 AM 42.8 °F 39.3 °F 42.8 °F 100% 30.23 in 10.0 mi West 5.8 mph - N/A   Clear
5:15 AM 42.8 °F 40.1 °F 42.8 °F 100% 30.22 in 10.0 mi WNW 4.6 mph - N/A   Clear
5:35 AM 44.6 °F 42.2 °F 44.6 °F 100% 30.21 in 10.0 mi NW 4.6 mph - N/A   Clear
5:55 AM 42.8 °F 41.1 °F 42.8 °F 100% 30.21 in 10.0 mi West 3.5 mph - N/A   Clear
6:15 AM 42.8 °F - 42.8 °F 100% 30.22 in 10.0 mi Calm Calm - N/A   Scattered Clouds
6:35 AM 42.8 °F - 42.8 °F 100% 30.21 in 10.0 mi Calm Calm - N/A   Scattered Clouds
6:55 AM 42.8 °F - 42.8 °F 100% 30.21 in 10.0 mi Calm Calm - N/A   Scattered Clouds
7:15 AM 42.8 °F - 42.8 °F 100% 30.21 in 10.0 mi Calm Calm - N/A   Clear
7:35 AM 42.8 °F 39.3 °F 42.8 °F 100% 30.21 in 10.0 mi WNW 5.8 mph - N/A   Scattered Clouds
7:55 AM 42.8 °F - 42.8 °F 100% 30.21 in 10.0 mi Calm Calm - N/A   Scattered Clouds
8:15 AM 42.8 °F 41.1 °F 42.8 °F 100% 30.21 in 10.0 mi WSW 3.5 mph - N/A   Clear
8:35 AM 44.6 °F 42.2 °F 44.6 °F 100% 30.21 in 10.0 mi WSW 4.6 mph - N/A   Scattered Clouds
8:55 AM 44.6 °F 43.1 °F 44.6 °F 100% 30.20 in 10.0 mi West 3.5 mph - N/A   Scattered Clouds
9:15 AM 44.6 °F 43.1 °F 44.6 °F 100% 30.19 in 10.0 mi WNW 3.5 mph - N/A   Clear
9:35 AM 46.4 °F - 46.4 °F 100% 30.19 in 10.0 mi Calm Calm - N/A   Clear
9:55 AM 48.2 °F - 46.4 °F 93% 30.20 in 10.0 mi WNW 3.5 mph - N/A Thunderstorm Clear
10:15 AM 50.0 °F - 48.2 °F 94% 30.20 in 10.0 mi Calm Calm - N/A Thunderstorm Scattered Clouds
10:35 AM 51.8 °F - 48.2 °F 88% 30.21 in 10.0 mi Calm Calm - N/A   Scattered Clouds
10:55 AM 51.8 °F - 50.0 °F 94% 30.21 in 10.0 mi East 8.1 mph - N/A   Overcast
11:15 AM 51.8 °F - 50.0 °F 94% 30.20 in 10.0 mi East 5.8 mph - N/A   Mostly Cloudy
11:35 AM 53.6 °F - 50.0 °F 88% 30.19 in 10.0 mi East 4.6 mph - N/A Thunderstorm Thunderstorm
11:55 AM 53.6 °F - 50.0 °F 88% 30.19 in 10.0 mi Calm Calm - N/A   Mostly Cloudy
12:15 PM 53.6 °F - 50.0 °F 88% 30.18 in 10.0 mi SSE 3.5 mph - N/A   Overcast
12:35 PM 53.6 °F - 50.0 °F 88% 30.18 in 10.0 mi SE 3.5 mph - N/A Rain , Thunderstorm Light Thunderstorms and Rain
12:55 PM 55.4 °F - 51.8 °F 88% 30.18 in 10.0 mi SE 5.8 mph - N/A Thunderstorm Overcast
1:15 PM 55.4 °F - 50.0 °F 82% 30.17 in 10.0 mi SSE 5.8 mph - N/A Thunderstorm Overcast
1:35 PM 59.0 °F - 50.0 °F 72% 30.16 in 10.0 mi SE 8.1 mph - N/A   Overcast
1:55 PM 59.0 °F - 50.0 °F 72% 30.15 in 10.0 mi ESE 6.9 mph - N/A   Scattered Clouds
2:15 PM 60.8 °F - 50.0 °F 68% 30.13 in 10.0 mi SE 6.9 mph - N/A Thunderstorm Thunderstorm
2:35 PM 60.8 °F - 50.0 °F 68% 30.13 in 10.0 mi SE 6.9 mph - N/A   Scattered Clouds
2:55 PM 60.8 °F - 50.0 °F 68% 30.12 in 10.0 mi East 4.6 mph - N/A   Scattered Clouds
3:15 PM 62.6 °F - 48.2 °F 59% 30.11 in 10.0 mi ESE 4.6 mph - N/A Thunderstorm Thunderstorm
3:35 PM 60.8 °F - 48.2 °F 63% 30.11 in 10.0 mi Calm Calm - N/A Thunderstorm Clear
3:55 PM 62.6 °F - 46.4 °F 55% 30.09 in 10.0 mi East 4.6 mph - N/A Thunderstorm Clear
4:15 PM 62.6 °F - 46.4 °F 55% 30.09 in 10.0 mi Calm Calm - N/A   Clear
4:35 PM 64.4 °F - 48.2 °F 56% 30.09 in 10.0 mi SSE 4.6 mph - N/A   Clear
4:55 PM 62.6 °F - 46.4 °F 55% 30.09 in 10.0 mi South 3.5 mph - N/A Thunderstorm Thunderstorm
5:15 PM 62.6 °F - 48.2 °F 59% 30.09 in 10.0 mi SW 4.6 mph - N/A   Clear
5:35 PM 62.6 °F - 48.2 °F 59% 30.08 in 10.0 mi SSW 3.5 mph - N/A   Clear
5:55 PM 60.8 °F - 50.0 °F 68% 30.07 in 10.0 mi WSW 6.9 mph - N/A   Clear
6:15 PM 60.8 °F - 50.0 °F 68% 30.08 in 10.0 mi WSW 8.1 mph - N/A   Clear
6:35 PM 59.0 °F - 50.0 °F 72% 30.08 in 10.0 mi WSW 4.6 mph - N/A   Scattered Clouds
6:55 PM 59.0 °F - 50.0 °F 72% 30.08 in 10.0 mi WSW 4.6 mph - N/A   Mostly Cloudy
7:15 PM 59.0 °F - 50.0 °F 72% 30.07 in 10.0 mi West 5.8 mph - N/A Thunderstorm Overcast
7:35 PM 57.2 °F - 50.0 °F 77% 30.07 in 10.0 mi West 3.5 mph - N/A   Scattered Clouds
7:55 PM 55.4 °F - 51.8 °F 88% 30.08 in 10.0 mi NW 4.6 mph - N/A   Scattered Clouds
8:15 PM 55.4 °F - 51.8 °F 88% 30.08 in 10.0 mi Calm Calm - N/A   Scattered Clouds
8:35 PM 53.6 °F - 51.8 °F 94% 30.08 in 10.0 mi Calm Calm - N/A   Clear
8:55 PM 51.8 °F - 51.8 °F 100% 30.09 in 10.0 mi West 4.6 mph - N/A   Scattered Clouds
9:15 PM 51.8 °F - 50.0 °F 94% 30.09 in 10.0 mi Calm Calm - N/A   Mostly Cloudy
9:35 PM 51.8 °F - 50.0 °F 94% 30.09 in 10.0 mi WSW 3.5 mph - N/A   Overcast
9:55 PM 51.8 °F - 50.0 °F 94% 30.09 in 10.0 mi Calm Calm - N/A   Scattered Clouds
10:15 PM 51.8 °F - 50.0 °F 94% 30.09 in 10.0 mi NW 3.5 mph - N/A   Scattered Clouds
10:35 PM 51.8 °F - 50.0 °F 94% 30.09 in 10.0 mi ESE 5.8 mph - N/A   Scattered Clouds
10:55 PM 50.0 °F - 50.0 °F 100% 30.09 in 10.0 mi Calm Calm - N/A   Mostly Cloudy
11:15 PM 51.8 °F - 50.0 °F 94% 30.09 in 10.0 mi Calm Calm - N/A   Overcast
11:35 PM 51.8 °F - 50.0 °F 94% 30.09 in 10.0 mi Calm Calm - N/A   Overcast
11:55 PM 50.0 °F - 50.0 °F 100% 30.09 in 10.0 mi Calm Calm - N/A   Overcast